Weather Roundup
Issued by NWS

Home | Current Version | Previous Version | Text Only | Print | Product List | Glossary On
Versions: 1 2 3 4 5 6 7 8 9 10 11 12 13 14 15 16 17 18 19 20 21 22 23 24 25 26 27 28 29 30 31 32 33 34 35 36 37 38 39 40 41 42 43 44 45 46 47 48 49 50
000
NZUS93 KARX 122059
HRRWXR

CURRENT HOURLY OBSERVATIONS ACROSS
MUCH OF THE UPPER MISSISSIPPI VALLEY
NATIONAL WEATHER SERVICE LA CROSSE WI
300 PM CST TUE DEC 12 2017


...SOUTHEAST MINNESOTA...


CITY           SKY/WX    TMP DP  RH WIND       PRES   REMARKS
ROCHESTER      CLOUDY    19  11  70 SW8       30.01F WCI   9
ROCHESTER/MAYO CLOUDY    20  10  67 S6        30.02F WCI  12
WINONA           N/A     21   5  49 W6        30.07F WCI  14
AUSTIN         NOT AVBL
ALBERT LEA     CLOUDY    25  16  68 SW6       30.01F WCI  18
DODGE CENTER   CLOUDY    19  14  79 SW8       30.00F WCI   9
PRESTON        CLOUDY    20  10  66 W5        30.02F WCI  13
OWATONNA       CLOUDY    23  18  80 S12       30.00F WCI  12
FARIBAULT      CLOUDY    21  16  79 S8        30.00F WCI  12
$$

...ELSEWHERE IN MINNESOTA...


CITY           SKY/WX    TMP DP  RH WIND       PRES   REMARKS
MINNEAPOLIS    FLURRIES  19  13  77 SE9       29.99F WCI   8
INTNL FALLS    LGT SNOW  12   6  77 SE8       29.84F WCI   0
DULUTH         FLURRIES  11   5  77 S7        29.90F WCI   0
RED WING       CLOUDY    18   7  62 S5        30.03F WCI  11
REDWOOD FALLS  MOSUNNY   37  26  64 SW9       29.93F WCI  30
MANKATO        CLOUDY    26  20  77 S7        29.98F WCI  18
WORTHINGTON    PTSUNNY   34  26  72 SW15      29.97F WCI  24
FAIRMONT       CLOUDY    34  24  67 SW14      29.99F WCI  25
$$

...SOUTHWEST WISCONSIN...


CITY           SKY/WX    TMP DP  RH WIND       PRES   REMARKS
LA CROSSE      CLOUDY    21   2  43 NW6       30.06F WCI  13
PRAIRIE DU CHI CLOUDY    23   3  42 W6        30.09F WCI  15
BOSCOBEL       CLOUDY    21   0  39 NW10      30.08F WCI  10
LONE ROCK      NOT AVBL
PLATTEVILLE    CLOUDY    22   4  46 NW10      30.05F WCI  11
FORT MC COY    CLOUDY    18   1  46 W5        30.05F WCI  11
MAUSTON-NEW LI MOCLDY    18   0  46 W9G16     30.03F WCI   6
VIROQUA        CLOUDY    18   4  55 W6        30.03F WCI   9
WIS DELLS      MOSUNNY   18  -2  41 W10       30.02F WCI   7
$$

...ELSEWHERE IN WISCONSIN...


CITY           SKY/WX    TMP DP  RH WIND       PRES   REMARKS
MILWAUKEE      MOSUNNY   21   6  52 W16G22    30.01S WCI   7
MADISON        PTSUNNY   21   2  43 W12G18    30.02F WCI   9
GREEN BAY      PTCLDY    18   3  52 W12       30.00S WCI   5
EAU CLAIRE     NOT AVBL
BLACK RVR FLS  MOCLDY    18  -4  37 W6        30.04F WCI  10
MEDFORD        CLEAR     12  -3  50 W9        29.95F WCI   0
WAUSAU         CLEAR     12   0  58 W12       29.96F WCI  -2
WIS RAPIDS     SUNNY     15   0  51 W7        30.02F WCI   5
MARSHFIELD     SUNNY     12   0  58 W7        29.97F WCI   1
RICE LAKE      CLOUDY    13   2  61 CALM      30.01F
$$

...NORTHEAST IOWA...


CITY           SKY/WX    TMP DP  RH WIND       PRES   REMARKS
WATERLOO       CLOUDY    26   6  42 W9        30.07F WCI  17
DUBUQUE        MOSUNNY   21   7  54 NW14      30.07F WCI   8
DECORAH        CLOUDY    21   5  49 W7        30.03F WCI  13
MASON CITY     CLOUDY    29  17  61 SW12      30.03F WCI  19
CHARLES CITY   CLOUDY    25   9  50 W9        30.05F WCI  15
OELWEIN        CLOUDY    25   3  39 W12       30.06F WCI  14
$$

...ELSEWHERE IN IOWA...


CITY           SKY/WX    TMP DP  RH WIND       PRES   REMARKS
DES MOINES     MOSUNNY   33  12  41 SW13      30.12F WCI  24
IOWA CITY      SUNNY     29   2  31 NW10      30.13F WCI  20
FORT DODGE     MOSUNNY   34  21  59 W12G18    30.05F WCI  25
MARSHALLTOWN   CLOUDY    29  10  45 W10       30.07F WCI  20
CEDAR RAPIDS   SUNNY     28   4  35 NW13      30.08F WCI  17
$$

...NORTHERN ILLINOIS...


CITY           SKY/WX    TMP DP  RH WIND       PRES   REMARKS
CHICAGO-OHARE  MOSUNNY   22   7  52 W13G22    30.03S WCI  10
CHICAGO-MIDWAY MOSUNNY   23   8  52 W16       30.04S WCI  10
MOLINE         SUNNY     29   2  31 W10       30.10F WCI  20
ROCKFORD       PTSUNNY   20   6  55 W12       30.06F WCI   8
PEORIA         SUNNY     29   5  36 NW9G18    30.12S WCI  20
$$

NOTE: "FAIR" INDICATES FEW OR NO CLOUDS BELOW 12,000 FEET WITH NO
SIGNIFICANT WEATHER AND/OR OBSTRUCTIONS TO VISIBILITY. WIND
SPEEDS ARE IN MILES-PER-HOUR.




USA.gov is the U.S. government's official web portal to all federal, state and local government web resources and services.